Hollywood, FL

4:13 AM EST on November 21, 2017 (GMT -0500)
North Perry

Weather History for KHWO - January, 2013

Change the Weather History Date:

Saturday, January 12, 2013

  Actual Average (KFLL) Record (KFLL)
Temperature  
Mean Temperature 76 °F -  
Max Temperature 80 °F 74 °F 86 °F (1925)
Min Temperature 71 °F 56 °F 32 °F (1982)
Cooling Degree Days 10    
Growing Degree Days 26 (Base 50)    
Moisture  
Dew Point 65 °F    
Average Humidity 71    
Maximum Humidity 87    
Minimum Humidity 56    
Precipitation  
Precipitation 0.00 in - - ()
Sea Level Pressure  
Sea Level Pressure 30.15 in    
Wind  
Wind Speed 9 mph (East)    
Max Wind Speed 15 mph    
Max Gust Speed 22 mph    
Visibility 10 miles    
Events      
Averages and records for this station are not official NWS values.
T = Trace of Precipitation, MM = Missing Value Source: NWS Daily Summary

Daily Weather History Graph

Daily Weather History Graph

Search for Another Location

Airport or City:

Trip Planner

Search our weather history database for the weather conditions in past years. The results will help you decide how hot, cold, wet, or windy it might be!

Date:

Astronomy

Jan. 12, 2013 Rise Set
Actual Time 7:09 AM EST 5:49 PM EST
Civil Twilight 6:44 AM EST 6:14 PM EST
Nautical Twilight 6:16 AM EST 6:42 PM EST
Astronomical Twilight 5:48 AM EST 7:10 PM EST
Moon 7:36 AM EST (1/12) 7:04 PM EST (1/12)
Length of Visible Light 11h 29m
Length of Day
10h 39m
New Moon, 1% of the Moon is Illuminated
Jan 12
New Moon
Jan 18
First Quarter
Jan 26
Full
Feb 3
Last Quarter
Feb 10
New

Hourly Weather History & Observations

Time (EST) Temp. Heat Index Dew Point Humidity Pressure Visibility Wind Dir Wind Speed Gust Speed Precip Events Conditions
12:53 AM 73.9 °F - 66.9 °F 79% 30.17 in 10.0 mi ESE 10.4 mph - N/A   Mostly Cloudy
1:53 AM 73.9 °F - 66.9 °F 79% 30.17 in 10.0 mi East 5.8 mph - N/A   Scattered Clouds
2:53 AM 73.9 °F - 66.9 °F 79% 30.16 in 10.0 mi ESE 8.1 mph - N/A   Mostly Cloudy
3:53 AM 73.0 °F - 66.9 °F 81% 30.14 in 10.0 mi ESE 8.1 mph - N/A   Scattered Clouds
4:53 AM 72.0 °F - 66.9 °F 84% 30.15 in 10.0 mi East 4.6 mph - N/A   Scattered Clouds
5:53 AM 72.0 °F - 66.0 °F 81% 30.15 in 10.0 mi East 5.8 mph - N/A   Partly Cloudy
6:53 AM 71.1 °F - 66.0 °F 84% 30.17 in 10.0 mi ESE 4.6 mph - N/A   Clear
7:53 AM 71.1 °F - 66.9 °F 87% 30.18 in 10.0 mi ENE 3.5 mph - N/A   Partly Cloudy
8:53 AM 75.9 °F - 66.9 °F 74% 30.19 in 10.0 mi ESE 9.2 mph - N/A   Clear
9:53 AM 78.1 °F - 66.0 °F 66% 30.21 in 10.0 mi East 13.8 mph - N/A   Scattered Clouds
10:53 AM 80.1 °F 81.9 °F 64.9 °F 60% 30.19 in 10.0 mi SE 13.8 mph 21.9 mph N/A   Partly Cloudy
11:53 AM 80.1 °F 81.9 °F 64.9 °F 60% 30.16 in 10.0 mi East 15.0 mph - N/A   Partly Cloudy
12:53 PM 80.1 °F 81.9 °F 64.9 °F 60% 30.14 in 10.0 mi ESE 15.0 mph - N/A   Mostly Cloudy
1:20 PM 80.6 °F 82.3 °F 64.4 °F 58% 30.13 in 10.0 mi East 10.4 mph - N/A   Mostly Cloudy
1:37 PM 80.6 °F 82.3 °F 64.4 °F 58% 30.13 in 10.0 mi East 15.0 mph - N/A   Mostly Cloudy
1:53 PM 80.1 °F 81.7 °F 64.0 °F 58% 30.13 in 10.0 mi East 12.7 mph 19.6 mph N/A   Mostly Cloudy
2:53 PM 80.1 °F 81.5 °F 63.0 °F 56% 30.12 in 10.0 mi East 12.7 mph - N/A   Mostly Cloudy
3:53 PM 79.0 °F - 64.0 °F 60% 30.12 in 10.0 mi East 13.8 mph - N/A   Partly Cloudy
4:53 PM 77.0 °F - 64.0 °F 64% 30.13 in 10.0 mi East 12.7 mph - N/A   Partly Cloudy
5:53 PM 75.0 °F - 64.0 °F 69% 30.13 in 10.0 mi East 8.1 mph - N/A   Clear
6:53 PM 73.0 °F - 63.0 °F 71% 30.14 in 10.0 mi East 5.8 mph - N/A   Clear
8:53 PM 72.0 °F - 64.0 °F 76% 30.15 in 10.0 mi NE 3.5 mph - N/A   Mostly Cloudy
9:53 PM 72.0 °F - 63.0 °F 73% 30.14 in 10.0 mi East 4.6 mph - N/A   Partly Cloudy
10:53 PM 71.1 °F - 63.0 °F 75% 30.14 in 10.0 mi East 4.6 mph - N/A   Partly Cloudy
11:53 PM 71.1 °F - 64.0 °F 78% 30.12 in 10.0 mi East 5.8 mph - N/A   Clear